Weather reports worldwide

Advertisment
Berlin/Alexanderplatz, Germany (10389): temperature & dewpoint: 16.09.2018 23:00:00 - 22.09.2018 23:00:00 (CEST)Berlin/Alexanderplatz, Germany (10389): temperature -5cm: 16.09.2018 23:00:00 - 22.09.2018 23:00:00 (CEST)Berlin/Alexanderplatz, Germany (10389): temperature -20cm & temperature -100cm: 16.09.2018 23:00:00 - 22.09.2018 23:00:00 (CEST)Berlin/Alexanderplatz, Germany (10389): sunshine duration: 16.09.2018 23:00:00 - 22.09.2018 23:00:00 (CEST)Berlin/Alexanderplatz, Germany (10389): precipitation: 16.09.2018 23:00:00 - 22.09.2018 23:00:00 (CEST)
Date & Time tt [°C] td [°C] tt -5cm [°C] tt -20cm [°C] tt -100cm [°C] sd [min] rr [mm]
22.09.2018 23:00:00 - - - - - - -
22.09.2018 22:00:00 - - - - - - -
22.09.2018 21:00:00 - - - - - - -
22.09.2018 20:00:00 - - - - - - -
22.09.2018 19:00:00 - - - - - - -
22.09.2018 18:00:00 - - - - - - -
22.09.2018 17:00:00 - - - - - - -
22.09.2018 16:00:00 - - - - - - -
22.09.2018 15:00:00 - - - - - - -
22.09.2018 14:00:00 - - - - - - -
22.09.2018 13:00:00 - - - - - - -
22.09.2018 12:00:00 - - - - - - -
22.09.2018 11:00:00 - - - - - - -
22.09.2018 10:00:00 - - - - - - -
22.09.2018 09:00:00 - - - - - - -
22.09.2018 08:00:00 - - - - - - -
22.09.2018 07:00:00 - - - - - - -
22.09.2018 06:00:00 - - - - - - -
22.09.2018 05:00:00 - - - - - - -
22.09.2018 04:00:00 - - - - - - -
22.09.2018 03:00:00 - - - - - - -
22.09.2018 02:00:00 13,2 6,3 12,7 20,0 19,7 0 0,0
22.09.2018 01:00:00 13,6 7,1 13,3 20,4 19,7 0 0,0
22.09.2018 00:00:00 13,9 9,3 14,2 20,7 19,7 0 0,0
21.09.2018 23:00:00 14,1 10,7 15,4 21,0 19,7 0 0,0
21.09.2018 22:00:00 14,4 11,5 16,2 21,4 19,7 0 0,0
21.09.2018 21:00:00 14,3 12,0 17,0 21,7 19,7 0 0,2
21.09.2018 20:00:00 13,9 11,9 17,9 22,0 19,7 0 0,2
21.09.2018 19:00:00 13,9 11,1 19,7 22,2 19,7 0 0,7
21.09.2018 18:00:00 15,7 11,3 22,9 22,2 19,7 0 0,1
21.09.2018 17:00:00 19,8 14,2 27,3 22,0 19,7 0 0,0
21.09.2018 16:00:00 28,0 11,1 29,7 21,7 19,7 0 0,0
21.09.2018 15:00:00 29,5 11,5 32,5 21,0 19,7 31 0,0
21.09.2018 14:00:00 30,4 11,9 31,4 20,4 19,7 47 0,0
21.09.2018 13:00:00 28,7 11,7 27,5 20,0 19,7 42 0,0
21.09.2018 12:00:00 27,4 12,6 23,6 19,9 19,7 46 0,0
21.09.2018 11:00:00 25,8 13,3 20,0 19,9 19,7 1 0,0
21.09.2018 10:00:00 22,6 13,4 19,2 19,9 19,7 0 0,0
21.09.2018 09:00:00 21,5 13,4 17,7 20,0 19,7 0 0,0
21.09.2018 08:00:00 19,5 13,4 16,4 20,2 19,7 0 0,0
21.09.2018 07:00:00 19,0 13,2 16,1 20,4 19,7 0 0,0
21.09.2018 06:00:00 18,8 12,8 16,2 20,6 19,7 0 0,0
21.09.2018 05:00:00 18,7 12,4 16,3 20,9 19,7 0 0,0
21.09.2018 04:00:00 19,0 12,0 16,6 21,0 19,7 0 0,0
21.09.2018 03:00:00 19,7 12,0 17,1 21,4 19,7 0 0,0
21.09.2018 02:00:00 19,9 12,2 17,6 21,7 19,7 0 0,0
21.09.2018 01:00:00 20,1 13,1 18,4 22,0 19,7 0 0,0
21.09.2018 00:00:00 20,9 12,6 19,3 22,2 19,7 0 0,0
20.09.2018 23:00:00 21,9 12,7 20,4 22,5 19,7 0 0,0
20.09.2018 22:00:00 22,9 12,8 21,7 22,7 19,7 0 0,0
20.09.2018 21:00:00 24,0 12,3 23,1 23,0 19,7 0 0,0
20.09.2018 20:00:00 25,5 11,3 25,0 23,0 19,7 0 0,0
20.09.2018 19:00:00 27,4 11,0 27,8 23,0 19,7 0 0,0
20.09.2018 18:00:00 28,5 10,7 31,1 22,7 19,7 46 0,0
20.09.2018 17:00:00 29,6 11,2 35,1 22,2 19,7 60 0,0
20.09.2018 16:00:00 29,3 11,4 36,5 21,5 19,7 59 0,0
20.09.2018 15:00:00 29,0 12,4 36,4 20,7 19,7 60 0,0
20.09.2018 14:00:00 26,6 11,9 32,8 20,0 19,7 60 0,0
20.09.2018 13:00:00 26,2 11,9 27,8 19,7 19,7 60 0,0
20.09.2018 12:00:00 25,1 12,0 22,4 19,5 19,7 47 0,0
20.09.2018 11:00:00 23,1 12,4 18,8 19,5 19,7 1 0,0
20.09.2018 10:00:00 21,8 12,6 17,7 19,5 19,7 0 0,0
20.09.2018 09:00:00 20,3 13,0 16,7 19,7 19,7 0 0,0
20.09.2018 08:00:00 19,7 12,9 16,1 19,7 19,7 0 0,0
20.09.2018 07:00:00 19,0 13,0 16,2 20,0 19,7 0 0,0
20.09.2018 06:00:00 20,1 12,6 16,5 20,2 19,7 0 0,0
20.09.2018 05:00:00 20,6 12,8 16,8 20,4 19,7 0 0,0
20.09.2018 04:00:00 21,1 12,2 17,2 20,7 19,7 0 0,0
20.09.2018 03:00:00 22,1 12,1 17,5 20,7 19,7 0 0,0
20.09.2018 02:00:00 22,4 12,1 17,8 21,0 19,7 0 0,0
20.09.2018 01:00:00 21,5 12,4 18,4 21,2 19,7 0 0,0
20.09.2018 00:00:00 23,2 12,2 19,2 21,7 19,7 0 0,0
19.09.2018 23:00:00 24,0 12,3 20,0 21,9 19,7 0 0,0
19.09.2018 22:00:00 23,9 12,5 21,0 22,0 19,7 0 0,0
19.09.2018 21:00:00 24,9 12,1 22,3 22,2 19,7 0 0,0
19.09.2018 20:00:00 25,9 12,0 24,3 22,4 19,7 0 0,0
19.09.2018 19:00:00 27,2 12,0 27,2 22,4 19,7 0 0,0
19.09.2018 18:00:00 28,4 11,5 30,8 22,0 19,7 54 0,0
19.09.2018 17:00:00 29,1 11,6 35,0 21,5 19,7 60 0,0
19.09.2018 16:00:00 28,7 11,7 36,5 20,7 19,7 58 0,0
19.09.2018 15:00:00 28,5 12,4 37,2 19,7 19,7 60 0,0
19.09.2018 14:00:00 26,4 12,8 34,7 19,1 19,7 60 0,0
19.09.2018 13:00:00 25,1 13,0 28,4 18,7 19,7 60 0,0
19.09.2018 12:00:00 23,6 12,6 21,9 18,5 19,7 50 0,0
19.09.2018 11:00:00 22,6 13,4 18,4 18,4 19,7 0 0,0
19.09.2018 10:00:00 21,2 13,4 16,5 18,5 19,7 0 0,0
19.09.2018 09:00:00 19,3 13,0 14,9 18,7 19,7 0 0,0
19.09.2018 08:00:00 18,1 12,8 14,2 18,7 19,7 0 0,0
19.09.2018 07:00:00 17,5 12,4 14,2 18,9 19,7 0 0,0
19.09.2018 06:00:00 17,8 12,3 14,6 19,0 19,7 0 0,0
19.09.2018 05:00:00 18,9 11,9 14,8 19,2 19,7 0 0,0
19.09.2018 04:00:00 20,0 10,7 15,0 19,5 19,7 0 0,0
19.09.2018 03:00:00 21,3 10,2 15,1 19,7 19,7 0 0,0
19.09.2018 02:00:00 20,0 10,1 15,5 19,9 19,7 0 0,0
19.09.2018 01:00:00 20,6 9,5 15,9 20,2 19,7 0 0,0
19.09.2018 00:00:00 21,4 9,3 16,3 20,4 19,7 0 0,0
18.09.2018 23:00:00 22,1 9,3 17,0 20,7 19,7 0 0,0
18.09.2018 22:00:00 23,5 9,1 17,9 20,9 19,7 0 0,0
18.09.2018 21:00:00 24,4 8,4 18,9 21,2 19,7 0 0,0
18.09.2018 20:00:00 26,0 8,0 20,5 21,2 19,7 0 0,0
18.09.2018 19:00:00 27,6 7,4 22,6 21,4 19,7 0 0,0
18.09.2018 18:00:00 29,7 5,7 26,0 21,2 19,7 55 0,0
18.09.2018 17:00:00 30,7 9,0 29,4 20,7 19,7 60 0,0
18.09.2018 16:00:00 30,7 9,6 30,5 20,2 19,7 59 0,0
18.09.2018 15:00:00 30,3 8,7 31,7 19,7 19,7 60 0,0
18.09.2018 14:00:00 29,5 9,6 31,1 18,9 19,7 60 0,0
18.09.2018 13:00:00 27,9 11,4 27,5 18,5 19,7 60 0,0
18.09.2018 12:00:00 25,1 11,6 20,6 18,4 19,7 51 0,0
18.09.2018 11:00:00 21,3 11,0 16,5 18,4 19,7 15 0,0
18.09.2018 10:00:00 17,5 10,4 15,4 18,5 19,7 0 0,0
18.09.2018 09:00:00 16,0 10,1 14,6 18,7 19,7 0 0,0
18.09.2018 08:00:00 14,9 9,7 14,0 18,9 19,7 0 5,1
18.09.2018 07:00:00 14,3 9,3 13,8 19,0 19,7 0 1,2
18.09.2018 06:00:00 15,1 9,2 14,1 19,2 19,7 0 0,0
18.09.2018 05:00:00 15,7 9,1 14,5 19,5 19,7 0 0,0
18.09.2018 04:00:00 16,0 9,4 14,8 19,7 19,7 0 0,0
18.09.2018 03:00:00 16,4 9,1 15,2 20,0 19,7 0 0,0
18.09.2018 02:00:00 16,8 9,7 15,9 20,2 19,7 0 0,0
18.09.2018 01:00:00 17,7 9,3 16,5 20,5 19,7 0 0,0
18.09.2018 00:00:00 18,2 9,5 17,3 20,7 19,7 0 0,0
17.09.2018 23:00:00 18,8 9,3 18,3 21,0 19,7 0 0,0
17.09.2018 22:00:00 19,6 8,3 19,6 21,4 19,7 0 0,0
17.09.2018 21:00:00 20,9 7,9 21,4 21,7 19,7 0 0,0
17.09.2018 20:00:00 22,7 6,9 24,0 21,7 19,8 0 0,0
17.09.2018 19:00:00 24,9 5,1 27,3 21,7 19,7 0 0,0
17.09.2018 18:00:00 26,4 4,8 31,1 21,2 19,7 55 0,0
17.09.2018 17:00:00 27,0 4,7 33,9 20,7 19,9 47 0,0
17.09.2018 16:00:00 26,6 5,5 35,7 19,7 19,9 60 0,0
17.09.2018 15:00:00 27,4 5,6 36,7 18,9 19,9 60 0,0
17.09.2018 14:00:00 27,0 6,9 33,0 18,2 19,9 60 0,0
17.09.2018 13:00:00 24,9 7,5 26,4 17,7 19,9 60 0,0
17.09.2018 12:00:00 23,3 8,2 19,5 17,7 19,9 41 0,0
17.09.2018 11:00:00 21,3 7,9 15,4 17,7 19,9 17 0,0
17.09.2018 10:00:00 18,5 8,5 13,1 17,7 19,9 3 0,0
17.09.2018 09:00:00 15,3 8,3 12,1 18,0 19,9 0 0,0
17.09.2018 08:00:00 13,2 8,1 11,8 18,2 19,9 0 0,0
17.09.2018 07:00:00 12,9 8,4 11,9 18,4 19,9 0 0,0
17.09.2018 06:00:00 13,2 8,5 12,4 18,7 19,9 0 0,0
17.09.2018 05:00:00 13,6 8,9 13,0 18,9 19,9 0 0,0
17.09.2018 04:00:00 14,2 9,6 13,8 19,0 19,9 0 -
17.09.2018 03:00:00 14,8 9,6 14,6 19,2 19,9 0 -
17.09.2018 02:00:00 15,9 10,0 15,3 19,5 20,0 0 -
17.09.2018 01:00:00 16,3 9,7 15,7 19,7 20,0 0 -
17.09.2018 00:00:00 16,6 9,8 16,0 19,9 20,0 0 -
16.09.2018 23:00:00 17,0 9,7 16,9 20,2 20,0 0 -

tt = temperature
td = dewpoint
tt -5cm = temperature -5cm
tt -20cm = temperature -20cm
tt -100cm = temperature -100cm
sd = sunshine duration
rr = precipitation

Next stations